Hailey, ID

12:50 PM MST on December 16, 2017 (GMT -0700)
Friedman Memorial

Weather History for KSUN - August, 2013

Change the Weather History Date:

Friday, August 30, 2013

  Actual Average Record
Temperature  
Mean Temperature 71 °F -  
Max Temperature 87 °F 76 °F 89 °F (2001)
Min Temperature 55 °F 47 °F 37 °F (2010)
Cooling Degree Days 6    
Growing Degree Days 21 (Base 50)    
Moisture  
Dew Point 38 °F    
Average Humidity 39    
Maximum Humidity 58    
Minimum Humidity 15    
Precipitation  
Precipitation 0.00 in - - ()
Sea Level Pressure  
Sea Level Pressure 30.21 in    
Wind  
Wind Speed 9 mph (WNW)    
Max Wind Speed 14 mph    
Max Gust Speed 23 mph    
Visibility 10 miles    
Events      
Averages and records for this station are not official NWS values.
T = Trace of Precipitation, MM = Missing Value Source: NWS Daily Summary

Daily Weather History Graph

Daily Weather History Graph

Search for Another Location

Airport or City:

Trip Planner

Search our weather history database for the weather conditions in past years. The results will help you decide how hot, cold, wet, or windy it might be!

Date:

Astronomy

Aug. 30, 2013 Rise Set
Actual Time 6:59 AM MDT 8:15 PM MDT
Civil Twilight 6:29 AM MDT 8:44 PM MDT
Nautical Twilight 5:53 AM MDT 9:20 PM MDT
Astronomical Twilight 5:16 AM MDT 9:57 PM MDT
Moon 1:35 AM MDT (8/30) 4:39 PM MDT (8/30)
Length of Visible Light 14h 15m
Length of Day
13h 16m
Waning Crescent, 28% of the Moon is Illuminated
Aug 30
Waning Crescent
Sep 5
New
Sep 12
First Quarter
Sep 19
Full
Sep 26
Last Quarter

Hourly Weather History & Observations

Time (MDT) Temp. Dew Point Humidity Pressure Visibility Wind Dir Wind Speed Gust Speed Precip Events Conditions
12:15 AM 64.4 °F 42.8 °F 45% 30.21 in 10.0 mi NW 6.9 mph - N/A   Clear
12:35 AM 62.6 °F 42.8 °F 48% 30.21 in 10.0 mi NW 6.9 mph - N/A   Clear
12:55 AM 62.6 °F 42.8 °F 48% 30.22 in 10.0 mi NW 8.1 mph - N/A   Clear
1:15 AM 62.6 °F 42.8 °F 48% 30.22 in 10.0 mi NW 9.2 mph - N/A   Clear
1:35 AM 62.6 °F 42.8 °F 48% 30.23 in 10.0 mi NW 6.9 mph - N/A   Clear
1:55 AM 62.6 °F 42.8 °F 48% 30.23 in 10.0 mi NW 8.1 mph - N/A   Clear
2:15 AM 60.8 °F 42.8 °F 52% 30.22 in 10.0 mi NW 8.1 mph - N/A   Clear
2:35 AM 60.8 °F 42.8 °F 52% 30.22 in 10.0 mi NW 10.4 mph - N/A   Clear
2:55 AM 60.8 °F 42.8 °F 52% 30.23 in 10.0 mi WNW 8.1 mph - N/A   Clear
3:15 AM 60.8 °F 42.8 °F 52% 30.23 in 10.0 mi NW 9.2 mph - N/A   Clear
3:35 AM 59.0 °F 41.0 °F 51% 30.23 in 10.0 mi NW 10.4 mph - N/A   Clear
3:55 AM 59.0 °F 41.0 °F 51% 30.23 in 10.0 mi NW 10.4 mph - N/A   Clear
4:15 AM 59.0 °F 41.0 °F 51% 30.22 in 10.0 mi NW 10.4 mph - N/A   Clear
4:35 AM 59.0 °F 41.0 °F 51% 30.22 in 10.0 mi NW 10.4 mph - N/A   Clear
4:55 AM 57.2 °F 41.0 °F 55% 30.23 in 10.0 mi NW 12.7 mph 17.3 mph N/A   Clear
5:15 AM 57.2 °F 41.0 °F 55% 30.23 in 10.0 mi NW 11.5 mph - N/A   Clear
5:35 AM 55.4 °F 41.0 °F 58% 30.23 in 10.0 mi NW 10.4 mph - N/A   Clear
5:55 AM 55.4 °F 41.0 °F 58% 30.23 in 10.0 mi NW 11.5 mph - N/A   Clear
6:15 AM 55.4 °F 39.2 °F 54% 30.23 in 10.0 mi NNW 10.4 mph - N/A   Clear
6:35 AM 55.4 °F 39.2 °F 54% 30.23 in 10.0 mi NW 11.5 mph - N/A   Clear
6:47 AM 57.2 °F 39.2 °F 51% 30.24 in 10.0 mi WNW 10.4 mph - N/A   Partly Cloudy
6:55 AM 55.4 °F 39.2 °F 54% 30.23 in 10.0 mi NW 11.5 mph - N/A   Clear
7:47 AM 55.4 °F 39.2 °F 54% 30.26 in 10.0 mi WNW 11.5 mph - N/A   Partly Cloudy
8:47 AM 60.8 °F 37.4 °F 42% 30.26 in 10.0 mi NW 11.5 mph - N/A   Partly Cloudy
9:47 AM 66.2 °F 37.4 °F 35% 30.26 in 10.0 mi NW 11.5 mph - N/A   Partly Cloudy
10:47 AM 71.6 °F 39.2 °F 31% 30.25 in 10.0 mi WNW 8.1 mph - N/A   Partly Cloudy
11:48 AM 78.8 °F 42.8 °F 28% 30.25 in 10.0 mi SE 10.4 mph - N/A   Partly Cloudy
12:47 PM 82.4 °F 35.6 °F 19% 30.24 in 10.0 mi SE 11.5 mph - N/A   Partly Cloudy
1:47 PM 84.2 °F 37.4 °F 19% 30.22 in 10.0 mi South 11.5 mph - N/A   Partly Cloudy
2:47 PM 84.2 °F 37.4 °F 19% 30.21 in 10.0 mi SSW 11.5 mph - N/A   Partly Cloudy
3:49 PM 87.8 °F 37.4 °F 17% 30.18 in 10.0 mi SW 11.5 mph - N/A   Partly Cloudy
4:55 PM 84.2 °F 35.6 °F 18% 30.16 in 6.0 mi SW 13.8 mph 23.0 mph N/A   Smoke
5:50 PM 82.4 °F 33.8 °F 17% 30.16 in 6.0 mi SSW 11.5 mph - N/A   Smoke
6:47 PM 82.4 °F 30.2 °F 15% 30.15 in 7.0 mi SW 11.5 mph - N/A   Smoke
7:50 PM 80.6 °F 28.4 °F 15% 30.15 in 10.0 mi WSW 13.8 mph - N/A   Smoke
8:55 PM 75.2 °F 28.4 °F 18% 30.16 in 10.0 mi North 5.8 mph - N/A   Smoke
9:47 PM 71.6 °F 26.6 °F 19% 30.17 in 10.0 mi WNW 11.5 mph - N/A   Smoke
10:47 PM 69.8 °F 26.6 °F 20% 30.18 in 10.0 mi NW 4.6 mph - N/A   Smoke
11:15 PM 66.2 °F 26.6 °F 23% 30.18 in 10.0 mi NW 9.2 mph - N/A   Clear
11:35 PM 64.4 °F 26.6 °F 24% 30.19 in 10.0 mi NW 6.9 mph - N/A   Clear
11:55 PM 64.4 °F 26.6 °F 24% 30.19 in 10.0 mi NW 6.9 mph - N/A   Clear